Retour au catalogue

RADUGA 31

ActifMilitaireGEO
NORAD 23010·PAYLOAD·🇷🇺 Russia

Lancé Feb 18, 1994 depuis Baikonur Cosmodrome

Loading…

TLE

FraisSource: Space-Track

Époque: Sep 12, 2026, 22:13 UTC

1 23010U 94012A   26255.92619395  .00000098  00000-0  00000+0 0  9992
2 23010  14.1014 347.5733 0001557 184.8711 197.9507  1.00255386119233

Suivez RADUGA 31 en temps réel avec AllMySat

Download on the App Store